Temp
-4 -4 -3 -3 -3 -3 -3 -3 -3 -3 -3 -3 -3 -2 -2 -2 -2 -2 -2 -3 -3 -4 -4 -4 -4 -4 -4 -5 -4 -4 -3 -4 -4 -4 -4 -3 -3 -4 -4 -4 -4 -4 -3 -4 -4
-4 -4 -3 -3 -3 -3 -3 -3 -3 -3 -3 -3 -3 -2 -2 -2 -2 -2 -2 -2 -3 -4 -4 -4 -4 -3 -4 -5 -4 -4 -4 -4 -4 -4 -4 -4 -4 -4 -4 -4 -4 -4 -4 -3 -4
-4 -4 -3 -3 -3 -3 -3 -3 -3 -3 -3 -3 -3 -3 -2 -2 -2 -2 -2 -2 -3 -4 -3 -3 -4 -4 -4 -5 -5 -3 -5 -5 -5 -4 -4 -4 -4 -5 -4 -4 -4 -4 -4 -4 -3
-4 -4 -4 -3 -3 -3 -3 -3 -3 -3 -3 -2 -3 -2 -2 -2 -2 -2 -2 -3 -3 -3 -3 -3 -4 -4 -4 -4 -5 -5 -4 -4 -4 -4 -4 -4 -4 -4 -4 -4 -4 -4 -3 -4 -4
-4 -4 -3 -3 -3 -3 -3 -3 -3 -3 -3 -3 -3 -2 -2 -2 -2 -2 -3 -3 -3 -3 -3 -3 -3 -3 -4 -4 -4 -4 -4 -4 -4 -4 -4 -4 -4 -4 -4 -4 -4 -4 -4 -4 -3
-4 -4 -3 -3 -3 -3 -3 -3 -3 -3 -3 -3 -3 -3 -2 -2 -2 -2 -2 -3 -3 -3 -3 -3 -3 -3 -3 -4 -3 -4 -4 -4 -4 -4 -4 -4 -4 -4 -4 -4 -4 -4 -4 -4 -4
-4 -4 -4 -4 -3 -3 -3 -3 -3 -3 -3 -3 -3 -3 -3 -2 -3 -3 -3 -3 -3 -3 -3 -3 -4 -4 -3 -4 -3 -4 -4 -4 -4 -4 -4 -4 -4 -3 -4 -4 -4 -3 -3 -4 -4
-5 -5 -4 -4 -4 -4 -4 -4 -4 -3 -3 -3 -3 -3 -3 -3 -3 -3 -3 -3 -3 -3 -3 -3 -3 -4 -4 -4 -4 -4 -4 -4 -4 -4 -4 -4 -4 -4 -4 -5 -4 -4 -3 -4 -4
-6 -6 -5 -5 -5 -4 -4 -4 -4 -4 -3 -3 -3 -3 -3 -3 -3 -3 -3 -3 -3 -3 -3 -3 -3 -4 -4 -5 -6 -4 -4 -4 -5 -5 -4 -3 -3 -4 -4 -5 -4 -4 -4 -4 -4
-6 -6 -6 -6 -6 -5 -5 -4 -4 -4 -4 -4 -3 -3 -3 -3 -3 -3 -3 -3 -3 -3 -3 -3 -4 -4 -5 -7 -6 -5 -6 -5 -6 -5 -4 -4 -4 -4 -4 -4 -5 -4 -4 -4 -4
-7 -7 -6 -6 -7 -6 -6 -6 -5 -5 -4 -4 -4 -4 -4 -4 -3 -3 -3 -3 -3 -3 -3 -3 -4 -5 -7 -6 -6 -4 -7 -7 -4 -6 -5 -5 -5 -4 -4 -4 -4 -5 -4 -4 -4
-7 -7 -7 -7 -7 -7 -7 -7 -6 -6 -5 -5 -5 -5 -4 -4 -4 -4 -3 -4 -4 -4 -4 -4 -5 -5 -5 -4 -6 -6 -6 -7 -7 -4 -5 -6 -5 -6 -4 -4 -4 -4 -4 -4 -4
-7 -7 -7 -7 -7 -7 -7 -7 -7 -7 -6 -6 -5 -5 -5 -5 -4 -4 -4 -4 -4 -4 -4 -5 -7 -3 -4 -5 -5 -6 -6 -6 -8 -5 -5 -6 -5 -6 -4 -4 -4 -4 -4 -3 -4
-7 -8 -8 -8 -8 -8 -7 -7 -7 -7 -7 -6 -6 -6 -6 -5 -5 -5 -5 -5 -5 -5 -5 -5 -3 -3 -4 -5 -5 -5 -4 -4 -3 -5 -5 -8 -7 -6 -6 -4 -5 -6 -4 -4 -4
-7 -8 -8 -8 -8 -8 -8 -8 -8 -8 -8 -7 -7 -6 -6 -6 -5 -5 -5 -5 -5 -5 -5 -6 -4 -4 -5 -5 -4 -5 -3 -5 -5 -5 -5 -6 -6 -7 -6 -6 -5 -4 -4 -5 -3
-7 -8 -8 -8 -8 -8 -8 -8 -8 -9 -9 -8 -7 -7 -7 -7 -6 -6 -6 -6 -6 -6 -6 -5 -4 -5 -5 -4 -5 -5 -5 -5 -5 -5 -5 -5 -5 -6 -7 -6 -5 -6 -5 -5 -4
-8 -8 -8 -8 -8 -8 -9 -9 -9 -9 -10 -10 -8 -8 -8 -7 -7 -7 -7 -7 -7 -7 -7 -6 -6 -6 -6 -6 -6 -6 -6 -6 -7 -6 -5 -6 -7 -7 -7 -6 -6 -6 -6 -5 -5
-8 -8 -8 -8 -8 -9 -9 -9 -9 -9 -11 -11 -8 -8 -8 -8 -8 -8 -8 -8 -7 -7 -10 -9 -7 -6 -6 -6 -6 -6 -6 -6 -7 -6 -6 -6 -6 -7 -7 -7 -7 -7 -7 -6 -6
-9 -9 -9 -9 -9 -9 -9 -9 -9 -10 -11 -11 -10 -10 -11 -9 -8 -8 -9 -11 -7 -7 -7 -9 -10 -6 -7 -7 -7 -6 -7 -6 -6 -6 -7 -6 -7 -7 -7 -7 -7 -7 -6 -6 -6
-10 -10 -9 -9 -9 -9 -9 -9 -10 -10 -12 -11 -11 -11 -11 -9 -9 -9 -9 -8 -7 -8 -8 -8 -8 -8 -6 -7 -7 -7 -7 -7 -8 -8 -7 -7 -7 -7 -7 -8 -8 -8 -7 -6 -6
-10 -10 -10 -10 -10 -10 -9 -10 -10 -12 -11 -11 -11 -11 -11 -12 -10 -11 -11 -8 -8 -8 -8 -8 -8 -9 -7 -8 -8 -7 -8 -8 -8 -8 -8 -8 -8 -8 -8 -8 -8 -9 -8 -7 -7
-11 -11 -10 -11 -11 -10 -10 -10 -12 -13 -10 -10 -12 -12 -12 -12 -12 -11 -12 -8 -7 -8 -9 -8 -8 -9 -9 -10 -8 -9 -8 -8 -9 -9 -9 -9 -9 -9 -9 -9 -10 -10 -9 -8 -7
-12 -12 -11 -12 -11 -11 -12 -12 -13 -13 -11 -11 -10 -12 -12 -13 -11 -11 -10 -8 -8 -9 -8 -8 -9 -9 -9 -10 -11 -9 -9 -9 -9 -9 -9 -10 -10 -11 -10 -10 -12 -10 -10 -9 -7
-13 -14 -13 -13 -13 -12 -12 -14 -14 -12 -12 -12 -11 -12 -11 -10 -10 -10 -10 -9 -9 -9 -9 -9 -10 -10 -10 -11 -11 -11 -10 -9 -10 -10 -10 -10 -10 -11 -12 -13 -13 -12 -10 -8 -7
-14 -14 -13 -13 -14 -14 -14 -14 -14 -14 -13 -14 -11 -10 -11 -11 -11 -11 -11 -9 -10 -10 -10 -10 -10 -11 -11 -11 -11 -11 -11 -11 -11 -10 -10 -10 -11 -12 -12 -12 -13 -12 -9 -8 -7
-15 -14 -13 -14 -14 -16 -14 -14 -15 -15 -13 -12 -12 -12 -13 -12 -13 -14 -13 -11 -11 -10 -11 -11 -11 -11 -11 -11 -11 -11 -11 -11 -11 -11 -11 -11 -11 -12 -13 -12 -11 -10 -10 -9 -8
-15 -14 -14 -15 -15 -16 -15 -14 -14 -14 -15 -14 -14 -14 -15 -14 -14 -11 -11 -12 -12 -12 -12 -12 -12 -12 -12 -12 -12 -12 -12 -12 -11 -11 -12 -12 -12 -12 -13 -11 -10 -10 -10 -10 -10
Height
5881 5884 5885 5887 5890 5891 5893 5894 5894 5895 5896 5896 5896 5897 5897 5897 5898 5900 5902 5904 5905 5906 5906 5904 5901 5901 5904 5902 5904 5901 5901 5905 5904 5903 5903 5902 5902 5903 5903 5904 5904 5904 5905 5907 5909
5880 5882 5884 5886 5889 5891 5892 5893 5895 5896 5897 5897 5898 5897 5899 5899 5900 5901 5904 5905 5906 5907 5908 5906 5903 5903 5908 5909 5906 5899 5908 5907 5907 5908 5908 5908 5906 5905 5905 5906 5906 5906 5908 5909 5911
5879 5881 5883 5885 5888 5890 5892 5893 5895 5896 5897 5898 5898 5898 5899 5900 5902 5902 5904 5906 5907 5907 5909 5908 5905 5906 5908 5912 5912 5910 5913 5913 5912 5913 5912 5911 5910 5907 5908 5909 5910 5910 5910 5911 5912
5878 5880 5882 5884 5886 5889 5891 5893 5894 5896 5897 5898 5899 5899 5899 5901 5904 5904 5905 5907 5908 5909 5909 5911 5910 5910 5910 5912 5915 5916 5915 5916 5916 5916 5916 5914 5914 5913 5912 5912 5912 5913 5913 5914 5915
5876 5878 5880 5882 5885 5887 5889 5892 5893 5895 5897 5898 5899 5900 5900 5902 5903 5904 5905 5907 5909 5910 5910 5912 5912 5912 5910 5913 5915 5915 5917 5918 5918 5918 5917 5916 5915 5916 5916 5915 5915 5915 5915 5915 5916
5875 5877 5878 5880 5883 5885 5887 5890 5892 5894 5896 5897 5899 5900 5901 5902 5903 5904 5906 5908 5909 5910 5912 5912 5913 5913 5914 5914 5916 5916 5919 5919 5919 5918 5919 5919 5918 5917 5918 5918 5918 5917 5917 5917 5917
5874 5876 5877 5879 5881 5883 5886 5888 5890 5892 5894 5896 5898 5899 5900 5902 5903 5904 5905 5907 5909 5910 5911 5912 5913 5915 5915 5917 5917 5919 5918 5919 5918 5919 5922 5922 5918 5915 5920 5919 5920 5920 5919 5918 5918
5873 5874 5876 5877 5880 5881 5884 5886 5888 5890 5893 5895 5897 5899 5900 5901 5903 5904 5905 5906 5908 5909 5910 5911 5913 5914 5916 5918 5919 5921 5918 5913 5917 5919 5922 5922 5924 5922 5920 5919 5921 5921 5922 5922 5921
5872 5872 5873 5875 5877 5879 5881 5883 5885 5888 5890 5892 5895 5897 5899 5901 5902 5903 5905 5906 5908 5909 5909 5910 5912 5914 5915 5918 5920 5917 5919 5917 5920 5919 5922 5921 5918 5920 5921 5921 5922 5923 5923 5923 5923
5870 5871 5872 5873 5874 5876 5878 5880 5883 5885 5887 5889 5892 5896 5897 5899 5900 5902 5903 5905 5906 5908 5909 5910 5912 5914 5916 5920 5921 5921 5921 5918 5919 5920 5921 5922 5923 5923 5923 5922 5922 5923 5923 5924 5924
5867 5868 5869 5871 5872 5874 5876 5878 5881 5883 5884 5887 5890 5891 5894 5896 5898 5900 5901 5903 5905 5906 5908 5909 5912 5914 5921 5916 5918 5919 5922 5924 5919 5920 5921 5921 5922 5922 5924 5924 5923 5922 5923 5924 5925
5863 5865 5867 5868 5870 5871 5872 5874 5876 5879 5881 5883 5885 5887 5890 5892 5894 5897 5899 5902 5903 5904 5906 5908 5910 5911 5910 5913 5917 5918 5919 5923 5916 5918 5920 5921 5922 5921 5923 5923 5924 5922 5922 5922 5924
5860 5861 5862 5864 5866 5868 5869 5871 5873 5875 5877 5879 5882 5884 5887 5889 5891 5893 5896 5898 5900 5902 5904 5906 5906 5905 5910 5911 5913 5916 5918 5918 5920 5914 5919 5919 5920 5920 5920 5923 5922 5922 5924 5924 5924
5858 5858 5859 5860 5863 5864 5866 5868 5869 5871 5873 5877 5878 5881 5883 5885 5888 5890 5891 5895 5898 5899 5900 5903 5900 5904 5907 5909 5910 5912 5910 5911 5914 5915 5917 5920 5923 5920 5919 5917 5921 5922 5922 5924 5923
5854 5855 5856 5857 5859 5860 5862 5863 5865 5868 5871 5869 5873 5877 5879 5881 5884 5886 5888 5890 5892 5894 5899 5899 5897 5900 5903 5903 5906 5907 5908 5912 5912 5913 5913 5916 5919 5924 5918 5920 5916 5916 5916 5915 5914
5849 5851 5852 5853 5855 5856 5857 5859 5862 5866 5867 5865 5868 5871 5874 5876 5878 5882 5884 5886 5889 5891 5893 5892 5896 5897 5896 5900 5903 5903 5907 5908 5909 5910 5911 5914 5916 5922 5921 5914 5915 5913 5914 5909 5902
5843 5844 5846 5848 5851 5852 5853 5855 5859 5861 5862 5861 5866 5868 5870 5871 5873 5876 5879 5882 5883 5887 5889 5889 5891 5893 5894 5896 5897 5900 5901 5904 5908 5909 5911 5913 5914 5916 5914 5910 5909 5908 5913 5914 5913
5835 5837 5839 5842 5845 5846 5848 5851 5853 5858 5861 5859 5862 5864 5867 5867 5870 5872 5875 5877 5879 5881 5884 5886 5886 5887 5891 5893 5894 5896 5899 5902 5903 5910 5911 5911 5915 5901 5906 5906 5906 5906 5904 5909 5910
5827 5828 5831 5834 5837 5840 5843 5844 5852 5854 5862 5856 5857 5861 5864 5863 5867 5869 5872 5873 5871 5876 5879 5881 5881 5883 5887 5889 5891 5892 5895 5895 5899 5903 5906 5912 5906 5904 5905 5902 5901 5900 5899 5902 5905
5818 5820 5822 5825 5829 5832 5835 5841 5846 5850 5853 5851 5855 5859 5862 5861 5863 5865 5866 5865 5869 5873 5874 5876 5878 5877 5880 5885 5886 5887 5890 5894 5894 5898 5901 5905 5909 5900 5895 5895 5892 5889 5888 5893 5897
5809 5811 5812 5816 5821 5823 5829 5838 5840 5845 5844 5848 5852 5858 5860 5861 5859 5862 5864 5860 5864 5867 5870 5871 5874 5875 5875 5879 5881 5882 5884 5886 5889 5891 5893 5899 5901 5896 5887 5885 5881 5878 5883 5885 5885
5799 5801 5805 5808 5813 5818 5823 5829 5835 5838 5838 5844 5847 5852 5851 5857 5854 5858 5860 5853 5858 5863 5864 5863 5868 5871 5871 5868 5873 5876 5876 5877 5880 5884 5887 5889 5895 5884 5887 5883 5877 5869 5868 5870 5874
5791 5791 5796 5799 5806 5812 5819 5823 5830 5830 5831 5837 5840 5843 5844 5847 5848 5850 5847 5847 5856 5855 5857 5860 5861 5862 5865 5869 5864 5865 5865 5869 5872 5873 5877 5880 5889 5877 5877 5877 5863 5861 5857 5855 5862
5784 5786 5788 5793 5797 5802 5808 5816 5819 5824 5826 5831 5834 5833 5836 5840 5839 5843 5843 5842 5849 5849 5852 5853 5854 5855 5857 5859 5855 5851 5858 5861 5863 5864 5865 5868 5872 5873 5868 5856 5853 5847 5846 5847 5851
5777 5778 5782 5786 5792 5797 5801 5809 5814 5817 5822 5823 5825 5830 5833 5835 5834 5837 5838 5831 5843 5843 5844 5846 5847 5846 5847 5851 5851 5848 5847 5851 5852 5854 5854 5857 5853 5851 5850 5846 5837 5838 5836 5837 5840
5770 5773 5777 5780 5785 5791 5797 5803 5811 5813 5815 5818 5821 5825 5826 5829 5830 5831 5830 5831 5831 5832 5838 5837 5837 5837 5839 5840 5841 5840 5837 5835 5842 5842 5839 5840 5838 5837 5830 5830 5826 5826 5825 5826 5828
5766 5767 5769 5771 5779 5785 5791 5799 5806 5810 5810 5813 5816 5821 5822 5821 5821 5825 5826 5825 5824 5825 5826 5828 5828 5828 5829 5829 5828 5830 5827 5825 5825 5824 5825 5823 5817 5813 5808 5811 5815 5817 5817 5816 5812
Wind_Speed
15 14 13 11 9 8 6 8 6 4 1 1 3 3 6 7 11 12 10 7 6 6 9 12 7 9 14 8 10 17 10 7 10 13 11 14 15 10 7 7 7 7 9 11 10
16 15 14 12 11 9 8 8 9 6 3 3 3 4 4 6 8 10 9 6 3 5 9 7 7 12 11 4 4 20 20 11 9 9 10 12 13 14 9 6 7 7 6 6 6
16 16 15 14 12 10 9 9 10 9 6 4 4 3 7 5 7 8 8 8 5 4 9 6 9 9 13 9 7 13 9 7 9 10 12 12 11 18 9 7 5 6 6 3 4
16 16 16 16 14 13 11 10 11 11 10 7 4 4 4 8 6 6 8 9 7 4 4 4 8 9 5 11 6 6 4 6 7 10 11 10 9 10 12 9 4 3 3 2 1
13 15 16 16 16 15 13 12 11 12 12 10 8 6 4 4 8 6 6 11 9 4 1 5 4 10 4 7 1 0 2 4 6 7 11 11 7 6 8 9 8 5 2 3 2
12 13 14 15 16 16 16 14 13 13 14 13 11 8 6 4 5 8 8 8 9 7 4 2 5 2 4 4 2 7 3 1 2 5 10 10 7 7 6 7 8 8 6 3 2
12 14 14 15 16 16 17 17 15 14 15 15 14 12 9 6 6 6 9 9 9 9 6 4 4 3 4 1 4 8 6 4 6 7 7 7 3 8 7 5 6 7 7 6 4
11 13 16 16 16 17 17 18 18 17 17 16 16 15 13 10 8 7 7 9 10 11 10 9 8 7 2 1 3 6 6 9 6 9 3 7 6 4 7 4 3 5 6 5 5
11 11 12 15 16 17 18 18 19 19 20 19 18 18 16 13 11 8 8 8 9 10 11 10 7 8 6 3 4 12 12 16 8 7 2 6 7 9 9 5 3 4 4 4 3
15 13 12 12 14 16 17 19 20 21 22 23 22 21 20 17 16 13 10 10 10 10 10 9 9 8 4 3 10 6 5 12 8 6 5 5 4 3 4 5 1 3 4 3 4
17 16 15 13 13 14 15 17 20 22 24 23 23 23 20 22 20 18 16 14 12 12 11 10 10 10 4 20 16 15 5 6 13 11 6 6 9 4 3 1 1 1 1 5 6
17 18 18 17 16 15 15 16 17 19 21 22 24 25 25 24 24 23 21 18 16 14 13 11 8 13 22 10 16 22 17 5 23 16 10 7 11 11 7 7 7 5 5 5 4
13 16 18 19 19 18 17 17 17 18 21 22 23 23 23 24 25 25 22 21 20 18 16 14 16 22 9 14 15 20 17 17 14 21 7 13 14 7 10 10 12 14 10 9 10
13 15 16 17 18 19 19 19 19 19 19 21 22 22 22 23 24 22 25 21 21 20 20 18 26 21 15 16 16 14 24 26 19 19 12 5 7 18 11 17 13 15 17 14 14
17 17 17 18 19 18 18 19 19 19 13 27 23 20 22 23 25 24 22 22 22 23 20 22 29 22 21 23 22 20 22 14 18 17 18 16 12 6 19 16 23 22 17 13 20
22 21 20 18 18 18 19 20 20 18 15 26 22 18 20 23 23 20 21 21 21 19 19 28 22 21 28 25 20 23 19 19 18 19 20 15 14 7 18 20 17 18 23 10 16
27 25 24 23 19 18 19 19 20 19 24 25 23 17 19 21 22 20 19 18 19 16 16 21 19 19 19 18 20 17 15 11 9 11 13 10 9 16 23 30 29 25 18 22 25
27 29 28 27 23 23 21 20 22 18 14 21 20 19 15 22 20 19 17 18 17 17 11 11 13 22 17 16 17 15 14 11 12 7 9 14 12 22 28 34 35 39 39 33 33
30 30 31 30 27 26 26 25 14 15 11 25 15 12 16 19 17 17 17 15 26 20 21 15 17 21 16 15 17 20 16 22 18 19 19 10 14 25 30 35 38 42 42 39 34
32 31 32 32 30 30 29 24 18 20 11 25 16 15 15 18 16 16 20 27 22 20 21 23 23 25 24 17 20 22 22 17 15 13 12 13 14 23 31 31 39 43 47 40 34
27 30 35 32 33 33 29 22 22 20 31 17 16 11 16 13 19 13 15 29 26 24 24 27 26 25 31 24 24 26 23 23 22 24 19 12 13 20 27 35 43 48 45 38 37
26 28 30 32 32 30 28 26 20 24 32 24 19 17 21 14 22 19 17 34 26 22 27 31 27 26 29 29 30 25 30 30 27 24 19 21 23 28 27 30 38 46 50 53 39
24 28 29 31 32 28 24 25 21 27 31 28 28 26 23 20 28 26 32 37 22 27 26 23 25 27 25 21 26 31 35 30 29 30 31 26 17 23 32 31 35 51 57 61 51
21 23 25 27 30 35 31 19 26 26 22 20 25 33 33 29 32 31 33 36 25 28 23 24 24 26 27 23 30 33 32 29 31 34 34 32 32 29 26 27 33 47 61 63 57
19 24 24 28 28 31 34 20 21 21 21 24 30 30 28 29 32 29 29 41 25 26 26 26 27 31 32 30 33 38 41 36 37 37 39 40 43 43 48 48 47 53 63 62 56
19 20 24 26 29 35 32 23 18 19 26 25 24 23 23 25 24 17 25 30 30 32 24 27 31 33 33 34 35 38 42 44 37 39 45 47 50 48 45 59 65 66 66 64 61
16 21 26 32 32 38 31 28 25 16 19 19 17 14 17 22 28 27 26 29 31 29 28 27 31 32 33 34 37 39 38 45 48 49 46 49 55 57 54 62 64 64 64 64 65
Wind_Direction
214 214 217 218 224 225 227 214 214 213 182 99 120 129 106 99 110 130 144 150 126 88 60 57 78 110 137 117 99 110 86 90 62 71 59 74 70 67 73 87 81 65 80 89 98
217 218 217 219 218 220 227 219 216 218 203 151 138 189 159 124 129 132 150 155 123 81 75 68 78 113 128 135 167 86 68 49 50 51 55 52 64 64 83 95 98 87 69 82 88
221 220 221 219 217 214 220 219 218 213 217 184 158 181 193 170 148 149 154 139 135 103 85 90 76 115 101 94 31 39 65 60 47 38 47 48 43 68 51 95 85 94 86 66 86
223 222 224 224 221 214 213 219 221 212 207 213 193 193 186 192 179 168 167 157 162 133 98 127 120 107 109 93 59 90 65 62 49 35 38 44 47 54 64 65 107 97 97 69 24
225 224 224 224 224 222 214 212 215 218 212 211 208 207 198 175 197 191 180 179 187 207 105 148 109 113 120 136 24 276 51 69 50 58 32 18 42 46 66 67 72 77 106 103 65
232 230 227 228 226 225 219 215 213 214 215 215 215 212 211 196 176 195 208 200 200 221 197 176 171 140 101 78 17 29 89 54 35 22 14 4 23 29 39 49 53 61 60 82 117
241 239 236 233 231 226 223 219 213 214 217 214 213 213 218 208 208 190 198 209 210 216 229 200 203 209 184 66 356 13 355 306 283 323 358 13 30 39 3 33 43 43 50 69 92
244 241 240 235 233 231 229 223 219 216 216 217 217 215 217 219 215 214 202 205 212 219 222 222 220 236 161 80 349 348 274 6 336 337 102 52 69 38 12 42 24 43 25 38 70
243 247 244 242 238 235 232 231 226 221 220 218 219 221 221 220 220 219 218 218 214 212 221 219 215 232 231 169 135 247 324 294 318 318 76 313 45 25 22 30 32 2 22 11 3
239 240 243 244 241 238 234 232 229 227 225 223 222 222 223 220 220 222 220 219 224 220 220 223 202 191 172 277 207 175 35 325 305 304 297 287 276 305 29 34 65 20 327 326 315
241 243 240 242 243 239 238 233 231 230 227 228 230 229 223 224 223 221 223 222 223 225 230 219 204 171 184 225 206 231 143 327 286 294 272 303 289 255 251 280 308 31 343 301 295
240 242 242 240 240 241 238 238 236 231 233 231 230 227 225 224 226 223 222 225 223 228 227 230 207 206 218 238 212 221 236 251 307 287 285 260 264 259 210 247 261 281 255 265 276
244 244 245 242 241 240 240 238 237 238 237 234 234 234 233 231 228 227 230 227 228 226 226 219 231 232 226 230 218 220 235 228 239 278 284 281 276 262 252 230 278 281 293 292 288
245 244 245 247 244 242 239 239 240 241 244 238 240 237 237 239 239 234 234 236 236 233 230 221 238 240 241 244 233 225 228 232 259 262 248 230 277 315 319 275 254 274 278 273 284
248 244 245 244 245 242 238 238 239 239 244 247 236 242 240 240 244 241 239 239 239 237 238 236 243 243 246 249 243 241 254 264 254 260 262 247 249 258 283 275 298 290 278 274 285
251 248 243 241 244 242 239 235 233 231 233 248 248 239 240 241 243 240 239 239 244 243 235 243 255 252 244 256 260 258 262 262 260 266 265 269 268 218 266 247 239 241 258 263 243
251 247 245 241 240 240 239 238 230 223 230 259 245 243 240 240 240 239 237 232 228 221 227 240 237 242 240 241 245 248 253 255 308 299 321 321 256 232 247 262 249 243 239 271 251
251 246 243 241 238 236 235 237 233 216 232 256 251 237 239 238 235 231 229 231 232 232 200 253 265 230 229 235 249 240 243 243 195 198 203 206 202 221 232 245 258 256 263 260 268
251 247 241 237 233 233 232 232 228 186 225 241 233 208 209 235 230 224 220 210 225 225 224 215 235 245 230 238 247 248 242 245 248 209 205 169 257 250 247 250 252 254 261 262 262
258 249 240 235 231 229 230 228 208 210 217 242 215 202 214 235 228 223 228 235 240 228 234 242 254 263 250 253 256 258 256 254 261 256 243 225 250 259 270 260 261 258 255 261 262
264 254 244 233 229 226 226 219 199 207 229 223 207 225 203 240 235 235 231 244 238 236 245 253 253 256 267 269 258 259 258 255 246 250 226 216 261 253 232 250 262 267 268 262 260
259 244 246 238 228 224 216 207 198 236 237 227 211 210 231 216 232 203 224 247 247 254 249 254 264 259 266 268 265 260 260 258 255 247 251 247 221 275 261 259 265 270 274 270 259
252 246 238 228 226 219 205 181 229 227 233 223 229 215 221 217 232 228 241 253 261 257 260 264 259 259 259 268 294 263 253 254 255 255 251 227 221 262 257 263 265 264 261 265 265
255 244 233 224 213 213 188 205 231 219 227 215 229 231 233 237 244 248 253 260 259 261 259 258 258 256 250 214 228 252 261 261 256 255 253 248 243 235 249 249 250 259 257 261 264
248 236 233 211 205 198 195 199 215 212 207 214 229 239 244 242 251 249 255 263 255 261 260 261 258 257 255 251 251 258 265 261 259 261 261 257 248 233 229 240 245 252 262 267 267
251 243 234 217 223 198 205 183 210 218 221 227 231 236 245 240 248 248 256 266 275 269 264 266 261 259 260 262 260 259 265 267 269 263 261 262 262 263 259 239 243 253 262 267 269
240 234 233 203 206 192 199 196 175 209 226 214 227 209 229 235 240 262 270 270 275 279 281 270 267 266 266 265 267 269 274 268 267 268 264 257 256 258 256 260 260 259 259 264 265